Weather in Nazran

Russia / Republic of Ingushetia     43°13′32″N   44°45′52″E
temp.,
°C
wind,
m/s
gust,
m/s
humid.,
%
clouds,
%
prec.,
mm/h
press.,
hPa
HPBL,
m
9 december, thu
thu900:00+7w115993 0.0 100910
03:00+6sw336996 0.0 101138
06:00+7wsw3463100 0.0 101269
09:00+8w41066100 0.0 1015351
12:00+10wsw4755100 0.0 1015460
15:00+11w2458100 0.0 1016317
18:00+8sw227070 0.0 101912
21:00+8wsw2269100 0.0 102024
10 december, fri
fri1000:00+8sw2273100 0.0 102127
03:00+7sw228043 0.0 102214
06:00+6n1184100 0.0 102415
09:00+6n2293100 0.1 1025121
12:00+6se0095100 1.6 102692
15:00+7sse118672 1.8 1025101
18:00+5s11895 0.0 102611
21:00+5e11881 0.0 102611
11 december, sat
sat1100:00+4e11890 0.0 102510
03:00+3e11890 0.0 102510
06:00+3e22890 0.0 102510
09:00+4e12876 0.0 102583
12:00+7ene23715 0.0 1024407
15:00+7ene337369 0.0 1025381
18:00+4ene2293100 0.0 102751
21:00+3e22957 0.0 102733
12 december, sun
sun1200:00+2e229522 0.0 102828
03:00+1ene229473 0.0 102835
06:000ene229617 0.0 102915
09:00+2ene229032 0.0 1030115
12:00+4ene3578100 0.0 1028343
15:00+4ene467569 0.0 1028356
18:00+1ene35935 0.0 1030135
21:00+1e359433 0.0 1029168
13 december, mon
mon1300:000ene349771 0.0 1028171
03:000e339473 0.0 1027220
06:000e339174 0.0 1027241
09:00+1ene238979 0.0 1027319
12:00+3ne228069 0.0 1025447
15:00+4ne227378 0.0 1024432
18:00+2nne018726 0.0 102410
21:00+2ene1189100 0.0 102345